Location: Melbourne
(37.8170°S, 144.9670°E)
Time: 17:35:43
(UTC+10:00)

ERBS - Visible Passes

Search period start: 02 July 2016 00:00
Search period end: 12 July 2016 00:00
Orbit: 433 x 453 km, 57.0° (Epoch: 01 July)

Date Brightness Start Highest point End Pass type
(mag) Time Alt. Az. Time Alt. Az. Time Alt. Az.
02 Jul 5.5 17:56:13 10° WSW 17:59:00 21° WNW 18:01:47 10° N visible
07 Jul 5.4 06:29:19 10° N 06:31:56 20° ENE 06:34:35 10° ESE visible
08 Jul 5.8 05:51:06 10° NE 05:52:37 12° ENE 05:54:08 10° E visible
09 Jul 2.3 06:46:03 10° NW 06:49:33 83° SW 06:53:08 10° SE visible
10 Jul 3.0 06:06:39 10° NNW 06:10:05 58° NE 06:13:36 10° SE visible
11 Jul 4.0 05:29:44 29° NNE 05:30:41 34° NE 05:33:56 10° ESE visible
11 Jul 3.8 07:04:49 10° W 07:07:35 21° SW 07:10:25 10° SSE visible
